{"data":{"norad_id":59794,"epoch":"2026-05-25T01:06:08.699328Z","epoch_age_seconds":81549,"freshness":"FRESH","line1":"1 59794U 24093N   26145.04593402  .00000616  00000+0  31920-4 0  9998","line2":"2 59794  43.0014 137.6278 0001490 272.7890  87.2791 15.27576336114376","mean_motion":15.27576336,"eccentricity":0.000149,"inclination_deg":43.0014,"raan_deg":137.6278,"arg_perigee_deg":272.789,"mean_anomaly_deg":87.2791,"bstar":3.192e-5,"rev_number":11437,"period_min":94.266974819123,"perigee_km":482.03774903266,"apogee_km":484.08238575874,"semimajor_km":6861.1970673957,"source":"CELESTRAK","updated_at":"2026-05-25T13:38:19.082434Z"}}